This is the latest recevied weather packets stored in our database for station/object KL7GG. If no packets are shown the sender has not sent any weather packets the latest 10 day(s).
| Time | Temp. | Humidity | Pressure | Rain* | Wind** | Luminosity | Snow |
|---|---|---|---|---|---|---|---|
| 1788156713 | 48° F | 92% | 753.8 mmHg | 0 in | - | - | - |
| 1788155809 | 48° F | 91% | 754 mmHg | 0 in | - | - | - |
| 1788154905 | 48° F | 90% | 754.1 mmHg | 0 in | - | - | - |
| 1788154002 | 49° F | 89% | 754.2 mmHg | 0 in | - | - | - |
| 1788153097 | 49° F | 89% | 754.3 mmHg | 0 in | - | - | - |
| 1788152193 | 49° F | 88% | 754.3 mmHg | 0 in | - | - | - |
| 1788151287 | 49° F | 87% | 754.3 mmHg | 0 in | - | - | - |
| 1788149477 | 50° F | 84% | 754.6 mmHg | 0 in | - | - | - |
| 1788148572 | 51° F | 84% | 754.6 mmHg | 0 in | - | - | - |
| 1788147669 | 51° F | 83% | 754.8 mmHg | 0 in | - | - | - |
| 1788146765 | 51° F | 82% | 755.2 mmHg | 0 in | - | - | - |
| 1788145859 | 51° F | 81% | 755.5 mmHg | 0 in | - | - | - |
| 1788144955 | 52° F | 81% | 755.7 mmHg | 0 in | - | - | - |
| 1788144051 | 53° F | 78% | 755.8 mmHg | 0 in | - | - | - |
| 1788143147 | 53° F | 73% | 756.1 mmHg | 0 in | - | - | - |
| 1788142243 | 55° F | 69% | 756.3 mmHg | 0 in | - | - | - |
| 1788141338 | 55° F | 66% | 756.2 mmHg | 0 in | - | - | - |
| 1788139532 | 54° F | 69% | 756.4 mmHg | 0 in | - | - | - |
| 1788138627 | 55° F | 68% | 756.4 mmHg | 0 in | - | - | - |
| 1788137723 | 55° F | 69% | 756.5 mmHg | 0 in | - | - | - |
| 1788136818 | 55° F | 65% | 756.6 mmHg | 0 in | - | - | - |
| 1788135915 | 56° F | 62% | 756.7 mmHg | 0 in | - | - | - |
| 1788135011 | 56° F | 64% | 757 mmHg | 0 in | - | - | - |
| 1788134104 | 56° F | 61% | 757 mmHg | 0 in | - | - | - |
| 1788133201 | 57° F | 62% | 757 mmHg | 0 in | - | - | - |
* Rain latest hour (hover to see other rain measurements)
** Current wind speed in m/s (hover to see current wind gust speed)